{"data":{"norad_id":65274,"intl_designator":"2025-184B","name":"STARLINK-34904","alt_names":[],"object_type":"PAYLOAD","status":"ACTIVE","operator":null,"country":"US","launch_date":"2025-08-22","launch_site_code":"AFWTR","launch_vehicle":null,"mission":null,"orbit_class":"UNKNOWN","rcs_meters":null,"size_class":null,"mass_kg":null,"dimensions":null,"purposes":["comms"],"wikipedia_slug":null,"has_3d_model":false,"image_url":null,"decayed_at":null,"tle_current":{"epoch":"2026-09-20T13:59:39.238656Z","epoch_age_seconds":110402,"freshness":"FRESH","line1":"1 65274U 25184B   26263.58309304  .00023075  00000+0  71428-3 0  9996","line2":"2 65274  97.2815 311.4960 0000393 208.1064 152.0158 15.33472727 60737","mean_motion":15.33472727,"eccentricity":3.93e-5,"inclination_deg":97.2815,"raan_deg":311.496,"arg_perigee_deg":208.1064,"mean_anomaly_deg":152.0158,"bstar":0.00071428,"rev_number":6073,"period_min":93.904506721625,"perigee_km":465.19172628795,"apogee_km":465.72963306557,"semimajor_km":6843.5976796768,"source":"CELESTRAK","updated_at":"2026-09-21T09:00:35.563339Z"}}}